AO-07 1 07530U 74089B 19178.87524546 -.00000037 00000-0 52327-4 0 9994 2 07530 101.7441 146.4419 0012032 331.7041 55.9348 12.53638675 41679 UO-11 1 14781U 84021B 19178.20115261 .00000029 00000-0 96272-5 0 9992 2 14781 97.6101 202.5173 0007060 296.6254 63.4237 14.83092058900020 LO-19 1 20442U 90005G 19178.32771122 -.00000020 00000-0 90300-5 0 9997 2 20442 98.6489 120.3132 0012727 120.9154 239.3283 14.32927729537619 HUBBLE 1 20580U 90037B 19178.33129107 .00000419 00000-0 14583-4 0 9995 2 20580 28.4700 154.8109 0002663 209.0928 150.9457 15.09239228402191 MET-2/21 1 22782U 93055A 19178.21082825 .00000040 00000-0 22232-4 0 9996 2 22782 82.5481 156.3135 0022904 151.2325 287.4589 13.83818068304041 AO-27 1 22825U 93061C 19178.45564821 -.00000005 00000-0 16107-4 0 9994 2 22825 98.9032 167.2924 0008015 341.0615 19.0267 14.30061176343203 IO-26 1 22826U 93061D 19177.96562075 -.00000005 00000-0 16137-4 0 9992 2 22826 98.8971 166.7816 0008350 330.3608 29.7099 14.30394738343332 FO-29 1 24278U 96046B 19177.90539232 .00000002 00000-0 39733-4 0 9997 2 24278 098.5381 330.2023 0349696 218.5795 138.9881 13.53092114128666 NOAA-15 1 25338U 98030A 19178.25780556 .00000068 00000-0 47377-4 0 9991 2 25338 98.7460 199.5090 0009785 212.5676 147.4901 14.25917087 98465 GO-32 1 25397U 98043D 19178.75602585 -.00000025 00000-0 84294-5 0 9994 2 25397 98.6891 118.7902 0001926 46.6078 313.5261 14.23667042 89166 ISS 1 25544U 98067A 19179.08902587 .00002897 00000-0 56308-4 0 9998 2 25544 51.6433 307.1913 0008368 91.1931 90.6590 15.51247374176942 NO-44 1 26931U 01043C 19177.89039639 -.00000024 00000-0 22768-4 0 9997 2 26931 67.0518 342.5234 0006789 278.7474 81.2858 14.30545503926146 SO-50 1 27607U 02058C 19178.01853431 -.00000049 00000-0 14129-4 0 9993 2 27607 64.5554 24.1388 0081087 254.9471 104.2648 14.75554525888265 CO-55 1 27844U 03031E 19178.02512901 .00000034 00000-0 35192-4 0 9999 2 27844 98.6832 186.1138 0010112 14.5179 345.6288 14.22182553829472 CO-57 1 27848U 03031J 19178.01964173 .00000027 00000-0 32050-4 0 9996 2 27848 98.6910 186.6104 0010232 25.4618 334.7062 14.21777161829320 RS-22 1 27939U 03042A 19178.84811733 .00000113 00000-0 28766-4 0 9998 2 27939 98.0411 314.4863 0013773 43.6375 316.5915 14.66787198841889 NOAA-18 1 28654U 05018A 19178.34937197 .00000083 00000-0 69804-4 0 9990 2 28654 99.0950 225.4488 0014924 149.9932 210.2097 14.12433701726742 CO-58 1 28895U 05043F 19178.87401037 .00000071 00000-0 22495-4 0 9994 2 28895 97.9604 321.2908 0015901 326.7848 33.2355 14.63670558728821 Falconsat-3 1 30776U 07006E 19177.74692758 .00001317 00000-0 37962-4 0 9992 2 30776 35.4359 39.2666 0002765 205.7007 154.3583 15.36205252681923 CO-65 1 32785U 08021C 19178.89624580 .00000111 00000-0 17604-4 0 9999 2 32785 97.5491 178.1764 0011833 227.9394 132.0817 14.88313466605050 AAUSAT2 1 32788U 08021F 19178.01754681 -.00000010 00000-0 40457-5 0 9994 2 32788 97.4963 193.3812 0012101 164.2751 195.8848 14.94732538606164 DO-64 1 32789U 08021G 19178.58216587 .00000341 00000-0 26794-4 0 9998 2 32789 97.4634 227.9794 0014068 95.0868 265.1966 15.06964309608304 CO-66 1 32791U 08021J 19178.83212634 .00000304 00000-0 36161-4 0 9996 2 32791 97.5274 184.0985 0012664 201.1723 158.8973 14.90825128605471 RS-30 1 32953U 08025A 19178.90026398 .00000021 00000-0 75656-4 0 9996 2 32953 82.5019 139.0389 0020412 106.7894 253.5428 12.43090087503456 PRISM 1 33493U 09002B 19178.28685868 -.00000140 00000-0 -66979-5 0 9999 2 33493 98.1225 99.5684 0015502 149.3329 210.8800 14.96662309566435 NOAA-19 1 33591U 09005A 19178.33194532 .00000089 00000-0 73400-4 0 9996 2 33591 99.1797 169.6642 0013942 358.8929 1.2208 14.12360789535122 TISAT-1 1 36799U 10035E 19177.86914901 .00000064 00000-0 12624-4 0 9995 2 36799 098.1567 330.2926 0013516 062.8675 297.3918 14.91106883485789 JUGNU 1 37839U 11058B 19178.34890366 .00000289 00000-0 12298-4 0 9995 2 37839 19.9613 282.2839 0019158 62.4743 340.2183 14.12652721398489 SRMSAT 1 37841U 11058D 19177.86751944 .00000291 00000-0 14496-4 0 9997 2 37841 19.9737 342.1443 0011822 286.8778 232.6681 14.10634079397857 AO-71 1 37854U 11061E 19178.32832082 .00001046 00000-0 61047-4 0 9993 2 37854 101.7009 81.0148 0161009 40.2182 321.0814 15.06423715418290 HRBE 1 37855U 11061F 19178.63884374 .00000863 00000-0 50959-4 0 9995 2 37855 101.7140 78.8298 0173785 50.2942 311.3445 15.05428540418120 ALMASAT-1 1 38078U 12006B 19178.61494777 .00019897 41489-5 11255-3 0 9998 2 38078 69.4288 240.8155 0163749 248.4648 269.2163 15.63331399398884 HORYU-2 1 38340U 12025D 19178.59350711 .00000104 00000-0 23279-4 0 9997 2 38340 98.3282 217.4514 0012913 95.8569 264.4111 14.75721986382477 RS-40 1 38735U 12041C 19178.48467580 .00000032 00000-0 16200-3 0 9999 2 38735 82.4756 222.6026 0016244 212.4718 147.5368 12.42579162313642 BEESAT-3 1 39135U 13015F 19178.50804447 .00000517 00000-0 35509-4 0 9998 2 39135 64.8692 10.2954 0022237 320.9406 39.0113 15.17474739341585 BEESAT-2 1 39136U 13015G 19177.95501593 .00000569 00000-0 38659-4 0 9999 2 39136 64.8701 15.9270 0019585 300.0679 59.8505 15.16901758341426 ZACUBE-1 1 39417U 13066B 19178.01466475 .00000126 00000-0 22241-4 0 9993 2 39417 97.5618 191.0484 0059196 8.3243 351.8938 14.81117073302273 TRITON-1 1 39427U 13066M 19178.86282555 .00000150 00000-0 31618-4 0 9997 2 39427 97.6763 155.6741 0114853 135.5514 225.4979 14.67843044299683 GOMX-1 1 39430U 13066Q 19178.81081045 .00000093 00000-0 26133-4 0 9999 2 39430 97.7464 134.7627 0149913 225.2171 133.6757 14.59254529297933 LO-74 1 39440U 13066AA 19178.49723396 .00000121 00000-0 23691-4 0 9994 2 39440 97.6018 176.4138 0081640 57.0142 303.8882 14.75855284301275 AO-73 1 39444U 13066AE 19178.01063250 .00000165 00000-0 26631-4 0 9997 2 39444 97.5600 192.9984 0058130 2.2425 357.9038 14.81936002301167 SPROUT 1 39770U 14029E 19178.71370110 .00000125 00000-0 19987-4 0 9994 2 39770 97.8863 281.9489 0010447 60.4566 299.7683 14.87341803276179 DUCHIFAT-1 1 40021U 14033M 19178.33769608 .00000323 00000-0 38767-4 0 9999 2 40021 97.9241 102.9599 0013718 27.5605 332.6337 14.90630601272830 NANOSATCBR1 1 40024U 14033Q 19178.30188009 .00000116 00000-0 18016-4 0 9994 2 40024 97.9137 100.3252 0013092 31.4182 328.7815 14.89844845272724 EO-79 1 40025U 14033R 19177.76458778 .00000130 00000-0 19825-4 0 9992 2 40025 97.9060 97.4360 0013460 38.3784 321.8387 14.88944391272521 DTUSAT-2 1 40030U 14033W 19178.23338675 .00000123 00000-0 19304-4 0 9998 2 40030 97.8979 96.0503 0012811 33.0671 327.1344 14.88537355272525 EO-80 1 40032U 14033Y 19178.77706713 .00000143 00000-0 21480-4 0 9991 2 40032 97.8986 96.5932 0012715 32.0422 328.1565 14.88479865272596 ANTELSAT 1 40034U 14033AA 19178.19049208 .00000106 00000-0 23111-4 0 9990 2 40034 97.7602 45.0065 0060205 69.5311 291.2347 14.74104303269925 VELOX-1 1 40057U 14034E 19178.75060577 .00000193 00000-0 34556-4 0 9991 2 40057 98.2367 302.0345 0010466 197.8369 162.2483 14.77667865269101 DAURIA DX 1 1 40071U 14037C 19178.74157220 .00000040 00000-0 12642-4 0 9994 2 40071 98.4275 333.0882 0008262 188.0274 172.0816 14.81272056268595 UKUBE-1 1 40074U 14037F 19178.73233407 .00000174 00000-0 28066-4 0 9993 2 40074 98.4393 341.2054 0004239 162.9267 197.2089 14.84055342268999 HODOYOSHI-1 1 40299U 14070B 19178.77806987 .00000298 00000-0 15441-4 0 9992 2 40299 97.3478 258.3432 0013535 17.4157 77.8732 15.23369121257655 CHUBUSAT-1 1 40300U 14070C 19178.67947192 .00000327 00000-0 17214-4 0 9991 2 40300 97.3263 252.6350 0020784 28.2382 130.3020 15.22088361257388 QSAT-EOS 1 40301U 14070D 19178.69990802 .00000874 00000-0 36604-4 0 9991 2 40301 97.3261 255.7218 0026017 11.2994 139.5855 15.25930498257668 FIREBIRD FU3 1 40377U 15003B 19178.77753678 .00001739 00000-0 71805-4 0 9991 2 40377 99.1132 160.8728 0128204 60.4913 300.9030 15.18777110243305 FIREBIRD FU4 1 40378U 15003C 19178.43527211 .00001723 00000-0 71109-4 0 9997 2 40378 99.1135 160.5373 0128440 61.5027 299.9067 15.18781868243258 GRIFEX 1 40379U 15003D 19178.44504356 .00001189 00000-0 54345-4 0 9993 2 40379 99.1127 154.5622 0136500 79.8655 281.7938 15.15468212242915 NO-84 1 40654U 15025D 19178.11365714 .00007983 00000 0 11491-3 0 6538 2 40654 54.9881 134.3537 0136693 349.3447 10.4578 15.47046614113754 NO-83 1 40655U 15025E 19178.05508578 .00047397 11378-4 23425-3 0 7897 2 40655 54.9642 17.7040 0057572 58.9720 301.6974 15.80302724115041 DEORBITSAIL 1 40719U 15032E 19178.26144889 .00000227 00000-0 39579-4 0 9998 2 40719 97.9080 69.9123 0014920 280.4167 79.5362 14.76741362213526 NUDT-PHONESAT 1 40900U 15049B 19178.84839183 .00001071 00000-0 48782-4 0 9994 2 40900 97.4369 188.0928 0013777 146.4269 335.5650 15.22788290209053 XW-2A 1 40903U 15049E 19178.86697541 .00001057 00000-0 26866-4 0 9992 2 40903 97.3367 221.6837 0015467 109.8183 354.5271 15.41853952211661 XW-2C 1 40906U 15049H 19178.84991983 .00000186 00000-0 13234-4 0 9997 2 40906 97.4670 180.7762 0015555 160.9821 318.7258 15.15672203208380 XW-2D 1 40907U 15049J 19178.75425690 .00000190 00000-0 13401-4 0 9996 2 40907 97.4649 180.3594 0014904 158.1005 288.1097 15.15859176208383 LILACSAT-2 1 40908U 15049K 19178.78084487 .00000058 00000-0 67937-5 0 9992 2 40908 97.4779 179.2337 0016224 165.1487 280.9446 15.13800181208185 XW-2E 1 40909U 15049L 19178.80550238 .00000648 00000-0 35358-4 0 9994 2 40909 97.4590 183.2175 0014230 152.8405 293.0841 15.17779021208579 XW-2F 1 40910U 15049M 19178.77361012 .00000348 00000-0 20805-4 0 9990 2 40910 97.4615 182.3702 0015572 151.9172 294.0384 15.17290615208396 XW-2B 1 40911U 15049N 19178.91032957 .00000411 00000-0 24954-4 0 9990 2 40911 97.4675 181.1632 0014735 159.0582 237.8986 15.15791820208302 DCBB 1 40912U 15049P 19178.79428478 .00000573 00000-0 30077-4 0 9996 2 40912 97.4494 186.0305 0016061 135.1341 329.7274 15.19602238208696 TW-1C 1 40926U 15051B 19178.72047160 .00006895 00000-0 10113-3 0 9993 2 40926 97.1347 224.8841 0007433 354.6178 99.4907 15.55827186211565 TW-1A 1 40928U 15051D 19178.71943132 .00001746 00000-0 44514-4 0 9991 2 40928 97.1448 209.8248 0012520 48.5937 62.8631 15.40795498210569 IO-86 1 40931U 15052B 19177.92699926 .00000437 00000-0 -28358-4 0 9992 2 40931 6.0058 357.9313 0013786 267.7199 92.1685 14.76607563202487 LQSat 1 40958U 15057A 19178.19042256 -.00000012 00000-0 58623-5 0 9992 2 40958 97.8982 247.1578 0017433 210.1441 149.8765 14.73082209200059 AO-85 1 40967U 15058D 19178.33202598 -.00000055 00000 0 12958-4 0 7305 2 40967 64.7763 132.1341 0199448 200.0958 159.2220 14.75955132109019 ATHENOXAT-1 1 41168U 15077C 19178.73471161 .00001253 00000-0 30511-4 0 9991 2 41168 14.9875 149.8006 0011555 219.0041 140.9447 15.13633666195350 ChubuSat-2 1 41338U 16012B 19178.87388793 .00000204 00000-0 90862-5 0 9994 2 41338 31.0035 86.4146 0013902 194.6077 165.4157 15.00153399184290 ChubuSat-3 1 41339U 16012C 19178.77576838 .00000191 00000-0 80182-5 0 9992 2 41339 31.0100 85.1199 0013729 201.5496 158.4576 15.00328862184272 Horyu-4 1 41340U 16012D 19178.88008570 .00000308 00000-0 16615-4 0 9998 2 41340 31.0056 75.7792 0014184 220.2261 139.7325 15.01267565184392 OUFTI-1 1 41458U 16025C 19178.22715541 .00000224 00000-0 16082-4 0 9998 2 41458 98.1019 265.5029 0165664 328.8808 30.2686 15.05818537173858 e-st@r-II 1 41459U 16025D 19178.84381239 .00000750 00000-0 42877-4 0 9995 2 41459 98.1014 265.8096 0166732 327.9720 31.1432 15.05461978173921 AAUSAT4 1 41460U 16025E 19178.67536121 -.00000028 00000-0 32979-5 0 9992 2 41460 98.0954 266.8956 0156978 321.2987 37.7063 15.07336141174023 LO-87 1 41557U 16033B 19178.82393528 .00000650 00000-0 27129-4 0 9997 2 41557 97.4180 266.2704 0012123 264.9272 95.0583 15.27215003171488 NuSat2 1 41558U 16033C 19178.84706007 .00000726 00000-0 28327-4 0 9995 2 41558 97.4207 267.3689 0011168 265.7384 94.2580 15.29121882171531 Lapan A3 1 41603U 16040E 19178.80123507 .00000075 00000-0 66611-5 0 9994 2 41603 97.3596 237.2901 0013759 15.1704 94.3440 15.19718416167126 Swayam 1 41607U 16040J 19178.59946705 .00000833 00000-0 37999-4 0 9995 2 41607 97.3651 240.4809 0013511 7.9449 352.2000 15.23302435167231 Pratham 1 41783U 16059A 19178.62736745 .00000023 00000-0 13658-4 0 9992 2 41783 98.0667 238.0119 0033429 358.4415 1.6677 14.62996741146856 AlSat 1N 1 41789U 16059G 19178.81341881 .00000045 00000-0 17666-4 0 9999 2 41789 98.0681 240.2066 0028125 347.8688 12.1836 14.64246210146984 ScatSat 1 41790U 16059H 19178.75351497 .00000025 00000-0 17411-4 0 9994 2 41790 98.2077 223.6188 0004287 310.8685 49.2128 14.50820642145646 TY-1 1 41844U 16066D 19178.82290858 .00000443 00000-0 20998-4 0 9991 2 41844 97.4044 186.0858 0015991 150.2637 292.1576 15.24281393146085 Pegasus-1 1 41846U 16066F 19177.11750346 .00000242 00000-0 47678-4 0 9998 2 41846 98.7106 217.4364 0366860 216.1774 141.4088 14.37575395137624 CAS-2T 1 41847U 16066G 19178.16752446 .00000049 00000-0 18322-4 0 9997 2 41847 98.7049 219.0328 0365405 209.5795 148.4275 14.37990108138216 EO-88 1 42017U 17008BX 19177.89668069 .00000880 00000-0 37549-4 0 9995 2 42017 097.4027 244.9064 0007524 130.5435 229.6459 15.25531623131176 NJUST-1 1 42722U 98067MB 19178.69999164 .00181964 26020-4 26931-3 0 9993 2 42722 51.6293 219.9854 0005413 11.4576 90.3252 16.04493468119883 nSIGHT1 1 42726U 98067MF 19178.61354668 .00013022 00000-0 10362-3 0 9999 2 42726 51.6361 263.0662 0003961 214.3925 145.6817 15.71597136119227 Aoxiang-1 1 42735U 98067MQ 19176.34833756 .02331035 12114-4 54396-3 0 9994 2 42735 51.6109 226.4275 0006720 338.9451 125.8238 16.28972045120715 CAS-4B 1 42759U 17034B 19178.78364583 .00000022 00000-0 14879-4 0 9999 2 42759 43.0163 180.8450 0012391 305.6968 49.5321 15.09588276112206 CAS-4A 1 42761U 17034D 19178.89294745 -.00000144 00000-0 47702-5 0 9994 2 42761 43.0167 179.7748 0012844 307.5052 125.5435 15.09664184112224 UCLSat 1 42765U 17036A 19178.14552385 .00000638 00000-0 30290-4 0 9995 2 42765 97.3504 235.9754 0011069 191.4363 168.6624 15.22743363111757 NIUSat 1 42766U 17036B 19178.12206616 .00000559 00000-0 28132-4 0 9991 2 42766 97.3501 234.3556 0015550 184.6738 175.4355 15.21106974111518 LituanicaSAT 2 1 42768U 17036D 19177.86129931 .00001214 00000-0 54806-4 0 9993 2 42768 097.3540 235.3028 0014985 184.6678 175.4421 15.22794813111556 Aalto 1 1 42775U 17036L 19178.60774290 .00000443 00000-0 22783-4 0 9990 2 42775 97.3488 235.1564 0013908 182.0852 178.0328 15.21337892111563 URSA MAIOR 1 42776U 17036M 19178.10735768 .00000482 00000-0 24464-4 0 9994 2 42776 97.3499 234.8181 0013691 183.7987 176.3147 15.21469657111490 Max Valier Sat 1 42778U 17036P 19178.60139587 .00000518 00000-0 25673-4 0 9991 2 42778 97.3537 236.0718 0012205 184.8728 175.2392 15.22017186111598 Pegasus 1 42784U 17036V 19178.10555146 .00000664 00000-0 31628-4 0 9995 2 42784 97.3508 235.7548 0011633 192.6900 167.4046 15.22491638111545 NUDATSat 1 42787U 17036Y 19178.88636147 .00001172 00000-0 52077-4 0 9990 2 42787 97.3539 237.2094 0009906 192.4345 167.6638 15.23457871111547 SUCHAI 1 1 42788U 17036Z 19178.83315518 .00000789 00000-0 36562-4 0 9996 2 42788 97.3512 236.7710 0011299 188.8588 171.2451 15.22907362111744 SKCUBE 1 42789U 17036AA 19177.86385781 .00000714 00000-0 33479-4 0 9990 2 42789 097.3509 235.7639 0011054 192.4288 167.6678 15.22805956111518 VZLUSAT 1 1 42790U 17036AB 19177.88795853 .00000957 00000-0 43059-4 0 9993 2 42790 097.3524 236.2347 0010672 190.9356 169.1651 15.23451626111546 VENTA 1 1 42791U 17036AC 19177.83784670 .00000694 00000-0 32605-4 0 9997 2 42791 097.3507 235.7898 0010691 192.7826 167.3142 15.22819242111508 Robusta 1B 1 42792U 17036AD 19178.58228323 .00000756 00000-0 35111-4 0 9993 2 42792 97.3510 236.6164 0010691 190.2212 169.8809 15.22972923111649 D-SAT 1 42794U 17036AF 19178.26331800 .00000225 00000-0 24634-4 0 9994 2 42794 97.5387 222.5897 0128099 112.8529 248.6276 14.91097334109612 TechnoSat 1 42829U 17042E 19178.53769443 .00000017 00000-0 70635-5 0 9990 2 42829 97.5634 71.0517 0015188 35.7969 324.4264 14.90974795106258 TOMSK-TPU 120 1 42910U 98067MZ 19178.47955104 .00037567 00000-0 16030-3 0 9998 2 42910 51.6339 243.4901 0001182 260.1534 199.5260 15.84810010106424 TANYUSHA 1 1 42911U 98067NA 19178.59499804 .00135782 18987-4 26230-3 0 9990 2 42911 51.6212 230.3237 0005681 359.9345 157.8575 16.00093371106582 TANYUSHA 2 1 42912U 98067NB 19178.68608885 .00063869 12691-4 20326-3 0 9994 2 42912 51.6338 236.6575 0002974 346.6801 104.8452 15.91455739106538 TNS 0-2 1 42914U 98067ND 19178.05517530 .00043843 00000-0 18050-3 0 9991 2 42914 51.6332 246.2239 0001492 281.9642 78.1195 15.85484146106349 QIKCOM-1 1 42983U 98067NF 19178.74272648 .00001953 00000-0 31189-4 0 9996 2 42983 51.6403 294.7919 0004270 154.1171 206.0036 15.58883184 94754 AO-91 1 43017U 17073E 19178.32869813 .00000239 00000-0 23772-4 0 9998 2 43017 97.7233 99.3521 0259300 130.0930 232.3328 14.78548936 86532 EcAMSat 1 43019U 98067NG 19178.69785139 .00003712 00000-0 48901-4 0 9990 2 43019 51.6409 290.0343 0004756 136.9737 223.1629 15.61302250177132 PICSAT 1 43132U 18004X 19178.17586278 .00000736 00000-0 33766-4 0 9991 2 43132 97.4879 245.9773 0008694 216.6831 143.3811 15.23572121 80794 AO-92 1 43137U 18004AC 19178.82484714 .00000565 00000-0 26709-4 0 9999 2 43137 97.4871 246.6072 0008248 215.9999 144.0683 15.23463760 80886 TianYi 2 1 43155U 18008A 19178.81699855 .00000632 00000-0 41411-4 0 9998 2 43155 97.4857 251.1656 0016331 296.0963 158.8431 15.11142864 79206 Zhou Enlai 1 43156U 18008B 19178.80114861 .00000767 00000-0 50164-4 0 9991 2 43156 97.4904 251.0448 0013202 293.8354 162.8329 15.10648069 79175 TianYi 6 1 43158U 18008D 19178.66058405 .00000175 00000-0 14520-4 0 9997 2 43158 97.4851 250.3851 0012673 292.9738 221.3750 15.10237621 79116 S-Net G 1 43186U 18014G 19178.31692035 -.00000303 00000-0 -21451-4 0 9996 2 43186 97.7098 86.6466 0010770 345.4543 14.6367 14.96648986 76420 S-Net H 1 43187U 18014H 19178.18303291 -.00000286 00000-0 -19970-4 0 9998 2 43187 97.7097 86.5029 0010789 345.9370 14.1550 14.96649182 76403 S-Net J 1 43188U 18014J 19178.18282860 -.00000276 00000-0 -19131-4 0 9995 2 43188 97.7099 86.5196 0010765 346.0568 14.0355 14.96648843 76401 S-Net K 1 43189U 18014K 19178.18315996 -.00000288 00000-0 -20117-4 0 9992 2 43189 97.7095 86.5004 0010755 345.9651 14.1270 14.96648630 74955 FMN 1 1 43192U 18015A 19178.85207136 .00001112 00000-0 48369-4 0 9991 2 43192 97.4002 306.4818 0014608 261.6492 98.3086 15.24272831 77713 Shaonian Xing 1 43199U 18015H 19178.85996379 .00000796 00000-0 34920-4 0 9997 2 43199 97.3786 305.5958 0015517 273.4361 86.5100 15.24784937 77765 1KUNS-PF 1 43466U 98067NP 19178.71881643 .00012691 00000-0 12487-3 0 9991 2 43466 51.6373 288.6003 0000357 160.0173 200.0837 15.66399579 64336 UBAKUSAT 1 43467U 98067NQ 19178.74792548 .00007928 00000-0 91569-4 0 9996 2 43467 51.6375 292.5452 0002372 104.4539 255.6719 15.62939729 64291 Irazu 1 43468U 98067NR 19178.30947099 .00019336 00000-0 16660-3 0 9996 2 43468 51.6361 287.3411 0000377 255.0312 105.0643 15.69301883164307 EnduroSat One 1 43551U 98067NZ 19177.48883189 .00010847 00000-0 12266-3 0 9992 2 43551 51.6375 301.3855 0005567 175.1889 184.9160 15.63024610 54291 EQUISat 1 43552U 98067PA 19178.75481940 .00008193 00000-0 98594-4 0 9993 2 43552 51.6389 296.3606 0005934 177.6992 182.4030 15.61805707 54431 UiTMSat 1 1 43589U 98067PD 19177.73369486 .00009633 00000-0 11443-3 0 9997 2 43589 51.6363 302.2394 0005329 182.1288 177.9684 15.61900928 50005 Maya 1 1 43590U 98067PE 19178.49646262 .00008985 00000-0 10701-3 0 9998 2 43590 51.6370 298.3381 0005380 185.5238 174.5698 15.61934711 50055 Bhutan 1 1 43591U 98067PF 19178.74272297 .00009151 00000-0 10861-3 0 9993 2 43591 51.6379 297.0028 0005480 187.5983 172.4929 15.61996461 50097 SiriusSat 1 1 43595U 98067PG 19178.79753573 .00008300 00000-0 10218-3 0 9994 2 43595 51.6366 298.0975 0003452 143.1262 216.9970 15.61188841 49266 SiriusSat 2 1 43596U 98067PH 19178.18867727 .00008253 00000-0 10228-3 0 9993 2 43596 51.6376 301.5658 0004060 141.9485 218.1796 15.61020538 49162 Tanusha-3 1 43597U 98067PJ 19178.75359171 .00010502 00000-0 12103-3 0 9990 2 43597 51.6360 297.0284 0003338 160.5406 199.5716 15.62580388 49278 SurfSat 1 43614U 18070B 19178.77442506 .00001421 00000-0 38739-4 0 9997 2 43614 93.0222 7.4175 0013175 271.6525 88.3219 15.37542625 43803 CP-7 DAVE 1 43615U 18070C 19178.71551751 .00001273 00000-0 34808-4 0 9993 2 43615 93.0226 7.3947 0013365 271.0284 88.9438 15.37463180 43796 ELFIN-B 1 43616U 18070D 19178.06910467 .00001854 00000-0 49578-4 0 9990 2 43616 93.0191 7.0414 0014247 278.5616 81.4023 15.38082001 43704 ELFIN-A 1 43617U 18070E 19178.06275380 .00002058 00000-0 54968-4 0 9995 2 43617 93.0245 7.2604 0013320 274.8628 85.1105 15.38122563 43701 STARS-Me Mother 1 43640U 98067PQ 19178.72321424 .00005487 00000-0 76633-4 0 9991 2 43640 51.6379 302.1263 0005575 129.8002 230.3482 15.58605315 41131 CubeBel 1 1 43666U 18083E 19178.85788573 .00000691 00000-0 37726-4 0 9997 2 43666 97.5184 203.2753 0015708 150.6128 334.4051 15.17587300 36676 Changshagaoxin 1 43669U 18083H 19178.82147255 .00000422 00000-0 24904-4 0 9999 2 43669 97.5055 202.5178 0011996 142.3247 217.8828 15.16792094 36611 Ten-Koh 1 43677U 18084G 19178.55310007 .00000004 00000-0 62549-5 0 9990 2 43677 97.8525 292.2256 0014670 251.0790 108.8837 14.90170549 35930 PO-101 1 43678U 18084H 19178.79645554 -.00000335 00000-0 -27718-4 0 9992 2 43678 97.8520 293.0030 0008606 277.0729 82.9525 14.91552877 36001 IRVINE 01 1 43693U 18088D 19178.36297713 .00001610 00000-0 69676-4 0 9990 2 43693 85.0355 312.3874 0019434 154.9936 205.2252 15.21393323 34680 QO-100 1 43700U 18090A 19178.14694313 .00000152 00000-0 00000 0 0 9996 2 43700 0.0187 25.7218 0000987 76.1710 251.7424 1.00270527 2374 Reaktor Hello World 1 43743U 18096AA 19178.81650416 .00000624 00000-0 26595-4 0 9995 2 43743 97.4588 248.8034 0016930 307.0631 162.6422 15.26616245 32121 MinXSS-2 1 43758U 18099A 19178.18452385 -.00000175 00000-0 -10561-4 0 9998 2 43758 97.7446 250.1374 0014365 301.9784 58.0040 14.95409404 30706 AO-95 1 43770U 18099N 19178.20431351 .00000418 00000-0 43700-4 0 9994 2 43770 97.7448 249.9649 0013323 309.2452 50.7585 14.94766007 30694 RANGE-B 1 43772U 18099Q 19178.19269850 .00000086 00000-0 13174-4 0 9990 2 43772 97.7501 250.1117 0012798 295.2809 64.7085 14.94871913 30687 RANGE-A 1 43773U 18099R 19178.19684222 .00000136 00000-0 17823-4 0 9996 2 43773 97.7395 249.8430 0012191 295.5450 64.4509 14.94801769 30684 MOVE-II 1 43780U 18099Y 19178.16969303 .00000066 00000-0 11341-4 0 9998 2 43780 97.7440 249.9703 0012281 307.9862 52.0248 14.95060178 30676 SNUSat 2 1 43782U 18099AA 19178.16437470 .00000111 00000-0 15445-4 0 9995 2 43782 97.7446 250.0063 0011361 296.3972 63.6082 14.95054049 30682 SnugLite 1 43784U 18099AC 19178.15399091 .00000484 00000-0 49333-4 0 9998 2 43784 97.7412 249.9274 0013745 304.4851 55.5070 14.95133697 30698 ITASat 1 1 43786U 18099AE 19178.62051210 .00000468 00000-0 47886-4 0 9993 2 43786 97.7465 250.5350 0013807 301.5542 58.4330 14.95139476 30765 EAGLET 1 1 43790U 18099AJ 19178.23369416 -.00000032 00000-0 23398-5 0 9996 2 43790 97.7456 250.2488 0012239 309.5287 50.4851 14.95516094 30407 ESEO 1 43792U 18099AL 19178.16439464 .00000009 00000-0 60769-5 0 9997 2 43792 97.7435 250.1384 0011993 306.4920 53.5195 14.95509305 30453 CSIM 1 43793U 18099AM 19177.68169615 .00000779 00000-0 75114-4 0 9995 2 43793 97.7398 249.5660 0011491 305.0953 54.9190 14.95694144 30350 Astrocast 0.1 1 43798U 18099AS 19178.20164490 .00000220 00000-0 24908-4 0 9991 2 43798 97.7437 250.2543 0011029 286.6250 73.3760 14.95730843 30691 JO-97 1 43803U 18099AX 19178.87217284 .00000457 00000-0 46727-4 0 9996 2 43803 97.7420 250.7043 0013787 301.0759 58.9108 14.95268013 30790 Suomi 100 1 43804U 18099AY 19177.86791093 .00000332 00000-0 35371-4 0 9995 2 43804 097.7418 249.7109 0013929 304.8710 055.1201 14.95267120030651 Al Farabi 2 1 43805U 18099AZ 19178.86674568 .00000334 00000-0 35548-4 0 9992 2 43805 97.7421 250.7115 0013927 301.2541 58.7315 14.95323834 30803 PWSat 2 1 43814U 18099BJ 19178.23320277 .00010739 00000-0 87338-3 0 9991 2 43814 97.7798 251.1199 0002908 253.9038 106.2070 14.99740922 30136 CHOMPTT 1 43855U 18104G 19178.11104116 .00000433 00000-0 16939-4 0 9992 2 43855 85.0388 50.8754 0015403 289.6665 70.2918 15.22381963 29304 ISAT 1 43879U 18111D 19179.02308529 .00004118 00000-0 37177-3 0 9991 2 43879 97.7170 86.8947 0012735 1.2144 358.9124 14.95991735 25334 UWE-4 1 43880U 18111E 19178.19076339 -.00000304 00000-0 -21785-4 0 9995 2 43880 97.7189 86.1664 0012590 3.7509 356.3804 14.96231465 25229 Sparrow 1 43881U 18111F 19178.31901268 -.00000275 00000-0 -19216-4 0 9991 2 43881 97.7196 86.3146 0012738 2.5335 357.5948 14.96280484 25231 Lume 1 1 43908U 18111AJ 19178.72786169 .00000590 00000-0 26870-4 0 9999 2 43908 97.2898 83.7339 0020659 323.7116 36.2720 15.24339557 27820 FO-98 1 43933U 19003B 19178.82481256 .00000376 00000-0 19569-4 0 9997 2 43933 97.2800 236.0966 0019604 57.3765 33.4523 15.21634640 24441 FO-99 1 43937U 19003F 19178.82913006 .00000717 00000-0 32638-4 0 9995 2 43937 97.2758 236.4366 0025782 43.5668 67.5460 15.23576430 24473 Delphini 1 1 44030U 98067PW 19178.78627649 .00006506 00000-0 96247-4 0 9995 2 44030 51.6388 305.5499 0004669 177.4347 182.6670 15.56661109 22966 MYSat 1 1 44045U 18092F 19178.83535989 .00000899 00000-0 37315-4 0 9992 2 44045 51.6427 326.6262 0012858 117.6255 242.6035 15.34951438 20649 AstroCast 0.2 1 44083U 19018F 19178.61999953 .00000265 00000-0 14950-4 0 9991 2 44083 97.4681 238.5350 0013436 344.3770 15.7049 15.21379885 13275 AISTechSat 3 1 44103U 19018AB 19178.61571546 .00000439 00000-0 21883-4 0 9994 2 44103 97.4559 238.5357 0013606 3.4963 356.6366 15.22630262 13274 AISat 1 1 44104U 19018AC 19178.62682668 .00000499 00000-0 18792-4 0 9995 2 44104 97.5091 240.1611 0060033 36.5501 323.9813 15.30471926 13374 OBJECT A 1 44339U 19036A 19177.51959998 .00000211 00000-0 00000 0 0 9995 2 44339 24.0042 197.0389 0011865 205.5075 291.4132 14.52634524 164 OBJECT B 1 44340U 19036B 19178.45504154 .00000211 00000-0 00000 0 0 9991 2 44340 23.9962 191.1237 0011978 213.6754 146.2625 14.52748484 302 OBJECT C 1 44341U 19036C 19178.45492655 .00000216 00000-0 00000 0 0 9999 2 44341 23.9930 191.1911 0028067 184.2851 175.7333 14.52817388 308 OBJECT D 1 44342U 19036D 19178.31743284 .00000212 00000-0 00000 0 0 9998 2 44342 24.0189 192.0813 0017285 195.2288 164.8006 14.52929597 283 OBJECT E 1 44343U 19036E 19178.31732324 .00000211 00000-0 00000 0 0 9991 2 44343 24.0172 192.0198 0010200 233.0503 127.0394 14.53022283 281 OBJECT H 1 44346U 19036H 19178.25986175 .00000359 00000-0 00000 0 0 9995 2 44346 28.5211 188.1668 0393037 126.5975 237.1435 14.95789421 296 OBJECT J 1 44347U 19036J 19178.25936055 .00000358 00000-0 00000 0 0 9997 2 44347 28.5292 188.1703 0391103 126.4942 237.2382 14.96173997 299 OBJECT K 1 44348U 19036K 19178.32578752 .00000363 00000-0 00000 0 0 9998 2 44348 28.5300 187.7582 0393423 127.2872 236.4276 14.96366254 303 /EX